Vorticity
6 6 4 3 2 3 2 3 5 6 5 5 6 7 10 9 8 6 5 4 4 3 3 3 3 3 4 4 6 7 9 12 15 17 16 15 13 12 11 10 10 10 10 9 9 9 8 9 10 10 9 7 7 6 6 5 5 7 7 6 6 8 9 4 4 5 4 6 7 5 8 9 9 9 6 5 7 6 5 5 6 6 7 7 7 8 8 7
3 4 5 4 3 4 2 3 6 6 5 5 6 8 8 6 5 4 3 3 2 2 2 3 3 5 6 7 9 12 15 17 16 15 14 12 11 10 10 9 9 8 8 8 9 9 8 7 5 5 4 3 5 5 5 5 6 8 7 7 7 7 4 2 5 6 6 6 6 7 9 8 7 9 7 5 6 7 7 7 9 10 10 10 9 8 7 7
3 3 3 3 4 3 1 3 6 6 6 6 7 8 6 5 4 3 2 2 2 3 4 5 6 8 9 12 14 16 17 16 13 11 11 10 9 8 9 8 9 8 8 8 7 6 4 3 3 3 3 6 7 6 7 7 8 8 6 6 5 5 5 6 9 8 9 8 6 8 7 4 4 7 7 7 8 9 10 10 10 9 7 6 5 5 5 5
2 3 3 3 4 3 1 3 6 6 6 6 8 7 5 3 2 2 2 2 4 5 6 7 9 12 15 18 17 15 14 12 10 10 9 8 8 8 8 8 8 7 5 4 4 3 3 5 6 6 7 8 7 6 8 7 7 6 4 6 6 8 11 11 11 10 9 7 6 7 7 4 4 7 9 9 9 8 7 7 5 3 2 3 3 3 3 3
2 3 3 3 4 3 0 2 6 7 6 6 7 6 3 2 1 2 3 4 6 6 9 12 14 17 18 17 15 13 11 9 8 9 9 8 8 8 7 6 5 4 3 4 5 5 7 8 7 8 8 6 6 6 6 6 7 8 8 10 11 12 12 10 8 7 5 5 5 5 7 5 6 9 8 5 4 3 3 3 1 0 1 2 1 2 3 3
3 3 4 4 4 2 -0 3 7 6 5 6 6 4 2 2 2 3 4 6 8 11 15 18 17 16 15 13 11 10 8 8 8 9 9 7 6 4 4 4 4 5 5 7 7 7 8 7 6 6 4 4 7 7 9 11 11 13 13 13 12 10 8 7 6 5 4 4 3 3 5 6 9 8 5 3 2 1 3 2 1 2 2 2 3 3 4 5
5 4 4 5 4 2 0 4 8 6 5 5 4 3 2 2 4 5 7 9 14 17 19 18 15 12 11 10 8 8 9 9 8 8 6 4 3 3 5 6 6 7 7 8 6 6 5 4 5 5 7 11 12 13 16 14 12 13 11 8 7 6 5 5 3 3 3 4 3 4 6 7 9 6 3 3 3 3 4 3 1 1 2 4 5 5 6 7
9 5 4 5 4 1 0 6 8 5 3 3 2 2 3 4 6 8 11 16 18 17 15 13 11 10 9 8 8 8 9 7 5 5 4 3 4 7 8 7 7 7 6 6 4 5 6 8 12 13 16 16 14 15 12 8 9 8 5 5 4 3 3 3 3 4 5 6 5 6 7 8 9 5 2 1 3 5 4 2 1 1 4 5 6 6 7 7
11 7 4 4 3 0 3 8 7 3 2 2 2 4 5 6 9 14 18 18 15 12 11 10 9 8 9 9 9 7 6 4 2 4 5 6 7 8 6 4 5 6 4 6 8 12 15 17 16 13 12 10 8 9 5 4 6 4 4 5 3 3 5 4 5 6 6 6 7 7 7 9 9 4 2 2 2 2 2 2 3 5 6 7 7 7 6 5
12 7 5 4 1 1 7 8 5 2 2 3 5 6 7 11 16 18 17 14 11 10 9 9 9 9 8 6 5 5 3 4 5 6 7 6 5 5 3 5 9 10 11 15 17 16 15 11 7 6 6 4 5 6 3 4 4 3 6 5 5 7 7 6 7 6 6 6 6 7 7 9 8 4 4 4 3 3 3 4 4 6 6 6 7 6 6 6
11 7 5 3 3 6 9 7 3 2 4 6 6 8 13 17 18 15 12 10 10 9 8 9 8 6 6 4 3 5 6 7 8 6 5 4 5 8 10 12 14 14 14 15 11 7 6 4 3 5 5 5 6 7 4 4 6 5 6 5 7 9 6 7 8 7 7 6 8 8 6 8 7 5 6 5 5 5 5 6 6 6 6 5 6 6 7 8
8 7 5 6 11 12 8 4 4 6 7 7 9 15 18 17 13 10 9 9 9 8 7 6 4 4 7 8 6 6 8 7 6 5 7 10 12 14 14 11 11 9 6 8 5 3 5 4 5 6 5 7 6 6 6 6 6 6 7 8 7 8 8 7 7 8 8 7 8 6 6 9 8 6 6 5 6 8 8 8 7 6 6 5 5 7 9 10
10 8 8 11 12 8 5 5 7 7 8 12 17 19 16 12 10 9 8 8 7 6 5 5 6 7 7 8 5 5 8 9 10 12 14 15 11 11 8 2 6 6 2 7 6 4 6 4 4 5 4 6 5 6 9 7 6 7 8 9 7 8 9 7 8 9 8 7 6 5 7 9 8 7 7 7 8 8 8 7 6 6 6 7 7 9 10 9
8 8 8 8 7 5 7 8 8 10 15 19 18 14 11 9 9 8 7 6 5 5 6 7 8 5 4 8 8 10 14 14 14 11 9 10 3 5 8 2 5 6 2 7 5 2 5 4 4 5 5 7 6 9 11 7 7 9 8 9 8 8 8 8 9 7 6 7 7 4 5 8 8 8 7 6 5 5 6 6 7 9 8 9 10 9 8 7
4 5 6 6 7 7 8 9 13 18 19 17 12 10 9 7 7 6 5 5 6 7 6 6 7 7 9 13 12 13 13 8 8 6 4 9 4 2 7 5 4 3 0 4 3 1 3 4 5 7 8 9 9 10 11 9 9 8 8 8 8 8 9 9 7 6 6 6 7 2 3 9 8 7 6 4 5 7 8 8 9 10 10 9 8 7 6 5
3 5 6 7 8 8 12 16 19 18 14 11 8 8 7 6 5 4 5 6 5 7 8 9 12 15 14 12 8 7 8 3 5 5 1 6 5 1 3 4 3 3 2 2 2 4 6 7 9 10 11 12 11 9 8 8 8 7 8 8 9 9 8 7 6 5 5 4 7 4 2 8 9 7 6 5 8 9 9 11 11 9 7 7 7 7 7 7
4 7 7 8 11 15 19 19 16 12 9 8 7 6 5 3 3 4 5 5 7 10 12 13 14 14 11 8 5 2 4 4 2 2 1 3 3 1 3 3 2 4 5 5 7 8 9 10 11 11 12 11 9 7 7 9 10 9 9 8 7 7 6 6 6 4 3 5 9 5 2 6 6 5 6 7 6 6 12 13 8 4 4 5 4 4 6 7
6 8 10 15 19 20 18 13 10 8 7 7 5 4 3 4 5 5 5 9 13 14 12 11 9 8 6 3 3 2 1 2 1 3 4 5 3 2 5 5 3 6 8 9 11 11 10 11 11 11 9 8 8 9 9 9 9 9 8 8 7 8 7 4 4 2 3 9 9 3 0 2 3 6 7 5 4 10 15 9 2 3 4 3 3 5 6 5
9 14 18 21 19 14 10 8 8 6 6 5 4 5 6 6 5 6 12 15 12 7 5 4 2 2 4 3 3 2 2 3 3 4 4 4 4 4 8 10 9 11 12 12 13 11 11 11 9 9 8 8 10 10 11 9 7 7 7 7 5 6 9 6 3 2 3 6 4 -1 -0 3 5 7 6 5 8 12 9 1 -0 3 4 6 8 7 6 6
18 22 21 17 11 8 7 6 6 4 4 4 6 7 6 8 12 15 19 12 3 2 2 2 0 -1 -0 3 5 3 3 5 4 3 5 7 8 9 12 13 13 14 13 12 12 10 9 9 9 12 12 11 10 9 9 8 6 6 5 5 3 3 8 7 2 2 3 2 3 2 3 8 8 7 8 9 11 9 3 1 3 3 4 7 8 5 5 5
24 19 13 9 7 7 6 4 3 3 5 6 6 6 7 16 20 18 12 4 2 3 1 1 3 3 -1 0 7 7 5 9 9 8 11 12 12 13 13 13 13 13 13 12 10 10 11 11 11 12 12 9 8 5 4 4 4 4 3 4 4 1 4 6 3 5 6 5 8 5 5 10 7 5 8 8 7 5 1 2 3 4 6 7 5 3 4 4
16 10 8 7 6 5 3 3 4 6 7 6 6 10 14 15 11 7 3 1 1 0 1 1 1 7 6 3 8 9 8 11 12 11 13 14 14 15 14 15 16 13 14 15 13 13 12 10 5 4 5 5 4 2 2 4 3 3 3 4 5 4 5 7 4 5 9 9 7 4 6 7 4 4 4 1 2 2 1 3 5 6 6 5 4 3 6 6
8 7 7 5 3 3 4 5 6 7 7 9 14 16 12 6 2 2 1 1 0 -1 5 7 5 10 10 11 16 16 16 19 20 18 19 20 18 19 17 14 16 13 10 12 11 6 4 6 4 1 3 3 4 4 4 6 4 3 6 6 8 7 7 9 6 4 8 7 6 8 7 5 5 9 7 5 7 5 5 8 7 6 5 4 6 7 8 8
7 5 3 2 3 5 6 6 7 11 15 17 16 9 3 2 1 0 1 4 6 4 8 12 15 18 19 20 22 21 20 19 20 18 16 15 13 13 10 6 11 11 2 4 8 1 -2 6 6 2 4 4 5 4 4 7 6 5 7 7 7 5 5 9 9 7 6 3 6 9 7 8 9 8 7 9 7 5 7 8 5 4 4 5 9 9 6 6
4 2 3 5 7 8 6 8 13 16 15 10 5 1 0 0 -1 -0 2 6 11 14 16 19 18 16 16 14 9 12 13 6 8 10 5 5 7 8 5 0 7 10 0 -1 5 2 -0 5 4 2 5 4 5 5 5 7 7 6 7 6 6 7 7 7 7 9 8 5 6 7 6 10 10 7 10 9 6 8 9 5 3 3 4 8 8 5 5 7
3 5 8 8 8 9 10 15 17 12 7 3 1 1 1 1 2 4 5 10 17 15 12 13 10 5 7 6 2 4 6 2 2 6 6 1 1 7 5 -2 1 7 5 1 2 2 3 5 3 3 5 5 6 6 7 7 6 6 7 5 6 7 7 7 7 9 8 7 8 9 8 8 8 9 11 12 11 11 6 2 5 6 6 7 5 5 8 8
8 8 8 9 11 13 14 13 8 3 2 2 1 1 1 4 9 10 11 10 9 6 2 3 4 3 4 4 5 2 1 6 3 -0 8 5 -1 5 4 1 2 1 2 5 3 2 4 5 5 6 6 6 7 7 7 8 6 7 7 7 7 7 8 9 9 9 6 7 9 9 8 7 9 10 10 12 10 4 3 4 5 6 6 6 8 10 9 7
8 8 10 14 15 13 10 5 2 1 2 1 1 1 1 7 11 11 10 4 -1 -0 0 0 1 2 1 -1 4 4 -3 5 7 -2 3 5 2 3 -1 0 7 3 0 4 5 5 6 7 7 8 8 7 8 7 8 7 7 9 8 8 9 8 9 9 9 9 6 8 11 8 7 7 7 8 9 8 5 3 5 6 8 12 12 11 11 8 4 4
8 11 14 15 11 6 3 1 1 1 1 0 1 3 4 8 9 4 3 0 -1 2 1 0 2 1 0 -4 -1 5 0 1 6 3 3 2 2 7 1 -0 8 8 4 6 9 7 7 7 7 9 9 9 9 7 7 7 7 9 7 8 10 8 8 8 9 8 5 10 12 6 6 8 5 8 10 7 6 7 9 11 14 13 9 5 3 0 2 6
13 15 13 8 4 2 1 0 1 1 1 1 0 4 7 7 5 1 1 1 -0 4 4 2 3 0 1 -0 -3 2 5 3 1 5 7 3 3 7 5 5 9 9 8 10 11 10 10 10 9 9 9 10 9 8 7 7 8 8 6 6 8 9 9 8 10 7 5 10 12 8 7 7 8 10 10 7 5 6 8 9 6 2 2 2 0 2 8 10
15 10 5 4 1 0 1 0 1 1 1 2 2 5 6 5 5 1 1 4 2 3 5 5 4 2 2 5 3 2 5 7 4 5 7 6 7 9 8 10 11 11 12 13 12 11 11 9 9 10 9 10 11 10 9 7 7 8 7 3 1 6 7 7 11 8 6 10 10 11 11 8 10 10 7 6 7 7 6 3 2 5 6 3 2 9 13 12
8 3 2 2 -0 -0 1 0 1 0 0 2 4 5 4 5 7 2 1 6 5 0 3 7 8 5 3 5 7 6 6 8 9 11 11 12 13 13 13 14 13 13 14 14 14 14 12 8 9 9 8 10 11 12 12 9 8 9 10 7 1 1 1 3 9 6 5 12 12 10 9 9 11 7 5 9 10 9 7 8 10 8 5 6 13 16 12 10
3 2 1 0 -0 1 0 -1 0 0 2 3 4 6 7 5 5 4 3 6 7 3 1 5 9 8 6 8 8 9 12 10 10 14 12 12 14 10 11 11 10 11 11 10 12 15 14 9 9 9 6 10 10 8 11 9 8 9 11 10 6 3 -0 0 5 2 -1 4 14 16 8 6 9 7 10 15 11 8 9 10 6 4 10 15 14 9 7 8
2 1 0 -0 1 0 -1 1 1 1 5 4 3 8 10 7 4 4 4 4 7 8 4 4 10 10 7 12 11 9 15 13 10 13 9 10 13 8 10 10 7 10 9 7 8 11 14 8 7 10 6 10 11 5 8 10 6 9 12 10 8 7 4 3 6 5 -3 -5 8 18 10 6 7 8 16 16 8 8 8 6 6 9 13 9 5 8 9 7
1 1 1 -0 0 0 1 3 1 3 8 2 4 11 10 7 6 4 4 5 6 9 9 6 10 12 8 12 13 8 14 13 9 13 8 9 10 6 11 12 8 10 8 7 6 7 16 12 4 8 9 10 11 6 8 10 6 8 11 9 7 7 6 4 6 10 4 -4 2 11 10 9 8 10 17 10 3 8 8 6 9 7 5 7 11 12 7 3
1 1 1 -0 1 2 2 3 2 6 8 2 7 14 8 7 9 6 5 9 8 9 12 9 10 15 10 9 12 9 10 10 9 12 9 9 8 4 10 11 8 11 7 8 7 2 14 19 5 5 11 11 10 9 9 10 9 9 10 10 8 8 8 5 4 9 7 -0 2 10 10 7 7 14 18 10 5 9 6 3 6 6 10 14 12 5 3 5
1 1 1 1 2 2 2 5 7 9 7 6 10 11 8 7 9 10 8 10 12 10 13 12 10 13 10 6 9 9 9 8 7 10 9 10 8 4 9 9 8 11 7 7 9 -0 8 20 10 4 11 12 9 10 11 10 11 10 8 11 9 6 8 8 5 8 6 1 1 10 12 6 7 17 17 10 9 7 5 8 11 14 16 9 4 5 6 6
2 1 2 2 3 3 5 8 8 8 8 9 9 7 9 9 8 12 12 10 13 11 11 12 7 8 10 7 7 8 8 7 6 8 8 10 9 6 9 9 7 9 7 7 10 3 2 14 16 8 10 14 11 9 10 9 10 11 10 12 9 5 7 8 9 8 5 1 -4 2 12 9 9 21 16 4 6 10 10 15 16 12 8 3 6 10 6 6
1 2 3 3 2 4 7 9 7 9 9 8 8 7 9 11 10 13 13 10 12 10 8 9 7 7 8 6 7 8 7 5 6 8 7 8 9 7 7 8 8 8 7 7 8 7 3 7 16 13 9 14 11 8 11 9 7 11 12 10 9 8 7 6 10 12 7 3 -0 -1 6 12 14 19 11 -1 6 16 11 9 9 4 3 6 10 9 6 8
3 4 4 3 5 9 9 9 9 10 9 6 8 9 10 11 11 11 11 9 7 8 7 6 6 6 6 5 4 7 7 5 5 8 7 6 7 8 6 6 8 6 7 8 6 7 6 4 10 14 13 15 10 6 11 10 8 12 11 9 9 8 8 5 8 15 8 3 8 2 -4 15 26 13 1 2 11 12 4 3 6 3 5 9 8 7 7 7
4 4 4 5 10 12 8 7 9 8 7 7 8 10 9 10 11 8 8 7 5 6 6 5 5 5 5 5 4 5 8 5 4 6 6 5 6 7 6 5 7 5 5 8 5 5 6 3 6 13 16 16 10 7 10 10 12 14 10 9 10 7 10 7 3 11 8 4 15 4 -12 11 28 6 -3 8 8 4 4 6 7 6 9 10 8 7 6 5
3 5 9 10 11 11 8 6 6 6 8 9 8 9 9 9 9 7 6 6 4 5 4 3 4 4 4 5 4 4 6 4 4 4 5 6 5 5 5 5 6 5 4 7 6 5 7 4 5 11 15 14 9 8 11 10 13 15 11 11 10 8 12 12 4 5 6 9 16 4 -10 7 18 2 2 9 4 4 8 7 8 9 9 9 7 6 5 7
6 10 11 9 9 10 8 6 5 6 8 9 7 8 8 7 7 5 4 5 4 5 5 2 3 4 3 4 3 3 5 5 3 4 5 5 3 4 5 5 6 5 6 8 7 9 10 5 3 9 12 9 7 10 14 14 13 14 13 12 10 10 11 11 8 5 6 12 13 2 -2 9 11 5 7 7 5 9 10 9 11 10 9 9 7 6 8 10
9 12 11 8 6 5 5 5 7 7 7 9 9 8 7 6 6 4 3 4 4 4 4 3 3 4 3 4 4 4 5 6 5 4 4 4 3 5 6 5 5 5 6 7 7 10 13 8 4 8 11 9 8 12 13 14 16 15 15 13 10 10 10 8 10 8 4 9 12 6 3 7 9 9 8 6 8 10 10 10 11 9 10 11 8 9 11 8
11 12 10 8 5 3 5 7 8 7 8 10 10 8 7 5 5 5 4 3 3 4 3 3 4 5 5 5 6 5 5 5 4 3 4 5 5 5 5 5 5 5 6 7 7 9 13 12 7 10 16 12 6 8 9 8 13 16 18 15 8 8 12 11 11 10 5 3 12 16 7 1 8 11 8 8 10 10 10 9 9 9 9 9 9 9 9 6
11 11 7 5 5 5 6 8 7 8 9 9 9 8 7 6 5 6 5 3 2 4 4 3 5 5 5 6 5 3 3 3 3 5 5 6 5 4 5 6 6 6 7 7 7 7 10 13 10 11 18 13 2 7 12 9 10 13 15 14 9 8 13 14 12 13 10 1 6 18 10 -1 7 13 9 11 10 9 10 9 8 10 10 8 8 7 6 8
8 8 4 4 5 4 6 8 7 7 8 8 8 6 6 7 6 5 6 4 2 4 5 4 5 5 4 5 5 3 4 5 4 5 5 4 5 5 5 7 6 6 7 7 7 6 9 11 9 12 20 13 -0 7 17 13 12 14 11 8 10 11 12 13 13 14 13 4 3 12 10 4 10 13 9 9 9 7 9 9 9 11 10 8 6 6 8 10
5 3 3 4 5 4 6 7 6 7 8 7 7 6 6 7 7 5 5 5 3 4 6 4 4 5 3 3 4 3 4 4 3 3 4 4 5 4 5 7 6 5 7 8 7 6 8 9 6 11 21 14 2 9 16 12 13 18 12 6 11 14 11 11 14 15 13 11 7 6 7 10 13 11 7 8 9 8 8 9 11 11 8 7 6 8 11 13
3 3 5 6 5 4 6 6 6 6 7 6 6 7 7 7 7 6 5 5 4 3 5 4 3 4 4 4 5 5 5 5 3 4 6 5 4 5 7 6 6 7 8 7 7 6 7 9 5 9 18 13 5 11 15 11 13 18 13 8 12 16 14 11 13 15 14 13 11 6 7 13 13 8 7 8 8 8 9 10 11 9 7 7 8 10 13 17
3 3 5 6 6 5 5 5 5 5 5 6 6 7 8 7 7 6 5 5 5 3 4 4 3 4 5 4 6 6 5 6 6 6 7 7 6 6 8 6 6 8 7 6 7 6 7 9 6 6 14 12 5 10 15 13 14 13 9 11 13 14 15 12 11 15 14 10 10 11 10 12 11 8 8 9 8 9 11 12 10 8 8 8 9 13 19 23
2 3 5 6 7 6 5 3 4 4 5 6 6 7 7 6 6 6 6 5 5 4 4 3 3 4 4 4 5 5 5 5 6 6 7 7 6 6 7 7 6 7 6 5 7 7 7 9 8 6 12 12 7 11 14 11 13 13 9 12 14 10 11 14 14 18 17 7 5 10 11 9 9 9 9 9 10 11 11 11 11 10 9 10 15 20 24 24
2 2 4 7 8 7 5 3 3 5 6 6 6 7 7 6 6 6 5 5 5 4 3 2 3 4 3 4 4 4 6 6 4 5 6 5 5 6 6 5 4 4 5 5 6 8 8 10 10 7 9 11 10 12 14 10 11 14 12 12 13 8 6 11 17 21 20 12 7 9 11 9 9 10 9 9 11 11 11 13 12 9 10 15 21 24 23 21
Height
5792 5794 5795 5796 5798 5799 5800 5800 5801 5801 5801 5801 5802 5802 5803 5803 5803 5803 5803 5803 5803 5802 5802 5802 5801 5801 5800 5799 5798 5797 5797 5796 5795 5794 5793 5792 5791 5790 5789 5788 5787 5786 5786 5785 5784 5783 5783 5782 5781 5780 5779 5778 5777 5776 5774 5773 5772 5771 5770 5769 5767 5766 5765 5765 5763 5762 5761 5759 5758 5757 5755 5753 5752 5753 5751 5749 5748 5747 5746 5744 5742 5741 5739 5738 5736 5734 5733 5731
5792 5794 5795 5796 5797 5799 5799 5800 5800 5801 5801 5801 5802 5802 5803 5803 5803 5803 5803 5802 5802 5802 5801 5801 5800 5800 5799 5798 5797 5796 5796 5795 5794 5793 5792 5791 5790 5789 5789 5788 5787 5786 5785 5784 5783 5782 5781 5780 5779 5779 5778 5777 5776 5774 5773 5772 5771 5770 5768 5767 5766 5765 5764 5763 5762 5760 5759 5757 5756 5756 5754 5751 5750 5750 5748 5747 5745 5744 5742 5741 5739 5737 5736 5734 5733 5731 5729 5727
5792 5793 5795 5796 5797 5798 5799 5800 5800 5800 5801 5801 5801 5802 5802 5802 5802 5802 5802 5802 5801 5801 5800 5800 5799 5799 5798 5797 5796 5796 5795 5794 5793 5792 5792 5791 5790 5789 5788 5787 5786 5785 5784 5783 5782 5782 5781 5780 5779 5778 5777 5776 5775 5773 5772 5771 5770 5768 5767 5766 5764 5763 5762 5761 5759 5758 5757 5756 5755 5755 5753 5749 5748 5747 5745 5743 5742 5740 5739 5737 5735 5733 5732 5730 5728 5726 5724 5722
5791 5793 5795 5796 5797 5798 5799 5799 5799 5800 5800 5801 5801 5802 5802 5802 5802 5802 5802 5801 5801 5800 5800 5799 5798 5798 5797 5796 5796 5795 5794 5794 5793 5792 5791 5790 5789 5788 5787 5786 5785 5784 5784 5783 5782 5781 5780 5779 5778 5777 5776 5775 5774 5772 5771 5770 5768 5767 5765 5764 5763 5761 5760 5758 5757 5756 5755 5754 5753 5753 5751 5747 5746 5745 5742 5740 5739 5737 5735 5733 5732 5730 5728 5725 5723 5722 5720 5718
5791 5793 5794 5795 5797 5798 5798 5799 5799 5800 5800 5801 5801 5802 5802 5801 5801 5801 5801 5801 5800 5800 5799 5798 5798 5797 5796 5796 5795 5794 5794 5793 5793 5792 5791 5790 5789 5788 5787 5786 5785 5784 5783 5782 5781 5780 5779 5778 5777 5776 5775 5774 5773 5771 5770 5768 5767 5765 5764 5762 5761 5759 5758 5757 5756 5755 5753 5752 5751 5751 5749 5746 5743 5742 5740 5738 5736 5734 5732 5730 5728 5726 5724 5722 5720 5718 5716 5714
5791 5793 5794 5795 5796 5797 5798 5799 5799 5799 5800 5801 5801 5801 5801 5801 5801 5801 5801 5801 5800 5799 5798 5798 5797 5797 5796 5795 5795 5794 5794 5793 5792 5792 5791 5790 5789 5788 5787 5786 5785 5784 5783 5782 5781 5780 5779 5777 5776 5775 5774 5773 5771 5770 5768 5767 5765 5764 5762 5761 5759 5758 5757 5755 5754 5753 5752 5751 5750 5748 5746 5744 5741 5739 5737 5735 5733 5731 5729 5726 5724 5722 5720 5718 5716 5714 5712 5709
5790 5793 5794 5795 5796 5797 5798 5798 5799 5799 5800 5800 5801 5801 5801 5801 5801 5801 5800 5800 5799 5798 5798 5797 5797 5797 5796 5795 5795 5795 5794 5793 5793 5792 5791 5790 5788 5787 5786 5785 5784 5783 5782 5781 5780 5779 5778 5777 5776 5774 5773 5771 5770 5768 5767 5765 5764 5762 5761 5759 5758 5757 5755 5754 5752 5751 5750 5749 5748 5746 5744 5741 5739 5736 5733 5731 5729 5727 5725 5723 5720 5718 5716 5714 5712 5709 5707 5705
5790 5792 5793 5794 5796 5797 5797 5798 5799 5799 5800 5800 5801 5801 5801 5801 5801 5800 5800 5799 5799 5798 5798 5797 5797 5797 5796 5796 5795 5794 5794 5793 5793 5792 5791 5789 5788 5787 5786 5785 5784 5783 5782 5781 5780 5779 5777 5776 5775 5773 5771 5770 5768 5767 5766 5764 5763 5761 5760 5758 5757 5755 5754 5752 5750 5748 5747 5746 5745 5744 5742 5739 5737 5734 5731 5728 5726 5724 5721 5719 5716 5714 5712 5709 5707 5704 5702 5699
5790 5791 5793 5794 5795 5796 5797 5798 5799 5799 5800 5800 5800 5801 5801 5800 5800 5800 5799 5799 5798 5798 5798 5798 5797 5797 5797 5796 5795 5794 5794 5794 5793 5791 5790 5789 5788 5787 5786 5785 5784 5783 5782 5780 5779 5778 5776 5775 5773 5772 5770 5769 5767 5766 5765 5763 5762 5760 5759 5757 5755 5754 5752 5749 5747 5745 5744 5743 5742 5740 5739 5737 5734 5731 5728 5726 5723 5720 5717 5714 5712 5709 5707 5704 5702 5699 5696 5693
5789 5791 5792 5794 5795 5796 5797 5798 5799 5799 5800 5800 5800 5801 5800 5800 5800 5799 5799 5799 5799 5798 5798 5798 5798 5797 5797 5796 5795 5795 5794 5794 5792 5791 5790 5789 5788 5787 5786 5785 5783 5782 5781 5779 5778 5777 5775 5774 5772 5771 5769 5768 5767 5765 5764 5762 5761 5759 5757 5755 5753 5751 5749 5747 5744 5742 5740 5739 5738 5736 5735 5733 5730 5727 5724 5722 5720 5717 5714 5710 5707 5704 5701 5699 5696 5693 5690 5686
5789 5791 5792 5794 5795 5796 5797 5798 5799 5799 5800 5800 5800 5800 5800 5800 5800 5800 5799 5799 5799 5799 5799 5799 5798 5798 5797 5796 5795 5795 5794 5793 5792 5791 5790 5789 5787 5786 5785 5784 5783 5781 5780 5779 5777 5776 5774 5773 5772 5770 5769 5767 5765 5764 5762 5761 5759 5757 5755 5752 5751 5748 5746 5744 5741 5739 5736 5734 5733 5732 5730 5728 5725 5723 5719 5716 5714 5712 5709 5705 5702 5699 5696 5693 5690 5687 5684 5680
5789 5791 5792 5794 5795 5796 5797 5798 5799 5800 5800 5800 5800 5800 5800 5800 5800 5800 5800 5800 5800 5800 5800 5799 5798 5798 5797 5796 5796 5795 5794 5793 5792 5790 5789 5788 5787 5786 5785 5783 5782 5781 5780 5778 5777 5775 5774 5772 5771 5769 5767 5766 5764 5762 5760 5758 5756 5754 5752 5750 5747 5745 5742 5741 5738 5736 5733 5730 5728 5726 5725 5723 5719 5717 5714 5710 5708 5706 5703 5699 5696 5693 5690 5687 5684 5681 5677 5674
5789 5791 5793 5794 5795 5796 5797 5798 5799 5800 5800 5800 5800 5800 5800 5800 5801 5801 5801 5801 5801 5800 5800 5799 5798 5798 5797 5797 5796 5795 5794 5793 5791 5790 5789 5788 5787 5786 5784 5783 5782 5781 5779 5778 5776 5775 5773 5771 5770 5768 5766 5764 5762 5760 5758 5756 5754 5752 5750 5747 5745 5742 5739 5737 5734 5732 5729 5726 5724 5721 5720 5717 5713 5711 5708 5705 5702 5700 5697 5693 5690 5687 5684 5681 5678 5675 5671 5668
5790 5792 5793 5794 5796 5797 5798 5799 5799 5799 5799 5800 5800 5801 5801 5801 5801 5802 5802 5801 5801 5801 5800 5799 5799 5798 5798 5797 5796 5795 5794 5793 5792 5790 5789 5788 5787 5786 5784 5783 5782 5780 5779 5777 5775 5774 5772 5770 5768 5766 5764 5762 5760 5758 5756 5753 5751 5749 5747 5745 5742 5739 5736 5733 5730 5728 5725 5722 5720 5717 5715 5713 5709 5705 5702 5700 5697 5694 5690 5686 5683 5680 5677 5675 5672 5668 5665 5662
5791 5792 5794 5795 5796 5797 5798 5798 5799 5799 5800 5800 5801 5801 5802 5802 5802 5802 5802 5802 5801 5801 5800 5800 5799 5798 5798 5797 5796 5795 5794 5793 5792 5791 5790 5789 5787 5786 5785 5783 5782 5780 5778 5776 5775 5773 5771 5769 5767 5765 5762 5760 5757 5756 5754 5751 5749 5746 5744 5741 5738 5736 5733 5731 5728 5725 5722 5718 5715 5712 5711 5709 5704 5700 5696 5693 5691 5688 5684 5680 5677 5674 5671 5668 5665 5662 5659 5655
5792 5793 5794 5796 5796 5797 5798 5798 5799 5799 5800 5801 5802 5802 5802 5803 5803 5803 5802 5802 5802 5801 5801 5800 5799 5799 5798 5797 5797 5796 5795 5794 5792 5791 5790 5789 5787 5786 5784 5783 5781 5779 5777 5775 5773 5771 5769 5767 5765 5763 5761 5758 5755 5753 5752 5749 5746 5743 5741 5738 5736 5734 5732 5729 5725 5722 5719 5715 5712 5708 5705 5704 5700 5695 5691 5686 5684 5681 5677 5674 5671 5668 5665 5661 5658 5655 5651 5647
5792 5794 5795 5795 5796 5797 5798 5798 5799 5800 5801 5802 5802 5803 5803 5804 5803 5803 5803 5803 5802 5802 5801 5801 5800 5800 5799 5799 5798 5797 5795 5794 5793 5791 5790 5788 5787 5785 5783 5782 5780 5778 5776 5774 5772 5770 5768 5766 5763 5761 5758 5756 5754 5751 5749 5746 5743 5741 5739 5737 5734 5732 5730 5727 5723 5720 5716 5713 5709 5704 5700 5698 5696 5691 5686 5681 5677 5674 5671 5668 5665 5662 5658 5654 5650 5646 5642 5638
5793 5794 5795 5795 5796 5797 5798 5799 5800 5801 5802 5803 5803 5804 5804 5804 5804 5804 5803 5803 5803 5803 5802 5802 5802 5801 5800 5799 5798 5796 5795 5794 5793 5791 5789 5788 5786 5784 5782 5781 5779 5777 5775 5773 5771 5769 5767 5764 5762 5759 5757 5754 5751 5749 5746 5744 5742 5740 5738 5735 5732 5729 5726 5723 5720 5717 5714 5710 5706 5701 5697 5694 5691 5687 5682 5677 5672 5669 5665 5662 5659 5655 5650 5646 5642 5637 5633 5629
5793 5794 5795 5796 5797 5798 5799 5800 5801 5802 5803 5804 5804 5804 5804 5804 5805 5805 5805 5805 5804 5803 5803 5803 5802 5801 5800 5799 5798 5796 5795 5793 5791 5790 5788 5787 5785 5783 5781 5779 5777 5776 5774 5772 5769 5767 5765 5763 5761 5758 5756 5753 5750 5748 5745 5743 5740 5738 5735 5732 5729 5726 5723 5720 5716 5713 5710 5707 5703 5698 5694 5690 5686 5682 5678 5673 5668 5664 5660 5656 5652 5647 5642 5637 5633 5628 5624 5620
5793 5794 5796 5797 5798 5799 5800 5801 5802 5803 5804 5804 5805 5805 5805 5805 5806 5806 5806 5805 5805 5805 5804 5803 5802 5801 5800 5799 5797 5796 5794 5792 5791 5789 5788 5786 5784 5782 5780 5778 5776 5774 5773 5770 5768 5765 5763 5761 5759 5756 5754 5751 5749 5746 5743 5740 5737 5734 5731 5728 5725 5722 5720 5717 5713 5709 5705 5703 5700 5694 5689 5685 5681 5677 5674 5668 5663 5659 5654 5649 5645 5640 5635 5631 5625 5620 5616 5612
5794 5795 5797 5798 5799 5801 5802 5803 5803 5804 5805 5805 5806 5806 5806 5807 5807 5807 5807 5806 5806 5806 5805 5804 5803 5801 5800 5798 5797 5795 5794 5792 5791 5789 5787 5785 5783 5781 5779 5777 5775 5773 5771 5769 5767 5765 5762 5760 5757 5754 5752 5749 5746 5743 5740 5737 5734 5731 5728 5725 5722 5719 5717 5714 5709 5704 5700 5697 5695 5690 5685 5681 5676 5672 5668 5662 5656 5652 5648 5643 5638 5633 5629 5624 5619 5614 5609 5604
5795 5797 5798 5800 5801 5802 5803 5804 5804 5805 5806 5806 5807 5807 5808 5809 5809 5808 5808 5807 5807 5806 5805 5804 5803 5801 5800 5798 5797 5795 5793 5792 5790 5788 5786 5784 5782 5780 5778 5776 5774 5772 5770 5768 5765 5763 5760 5758 5755 5752 5749 5746 5743 5740 5737 5734 5731 5728 5725 5722 5719 5716 5713 5712 5706 5700 5695 5690 5688 5685 5680 5675 5671 5667 5663 5656 5651 5646 5641 5637 5632 5627 5622 5618 5613 5607 5602 5596
5797 5798 5800 5801 5802 5803 5804 5805 5805 5806 5807 5808 5808 5809 5810 5810 5810 5809 5809 5808 5808 5807 5806 5804 5803 5801 5799 5798 5796 5794 5792 5790 5789 5787 5785 5783 5781 5779 5777 5775 5773 5770 5768 5766 5763 5761 5758 5756 5753 5750 5747 5744 5741 5738 5734 5731 5728 5725 5722 5719 5716 5711 5707 5705 5702 5697 5691 5684 5680 5679 5676 5670 5664 5661 5657 5650 5645 5640 5635 5630 5625 5621 5617 5612 5606 5599 5593 5588
5798 5800 5801 5802 5803 5804 5805 5806 5807 5808 5809 5810 5811 5811 5811 5811 5811 5810 5809 5808 5807 5806 5805 5803 5802 5801 5799 5797 5796 5794 5792 5790 5789 5787 5785 5783 5781 5779 5776 5774 5772 5769 5766 5764 5761 5759 5756 5754 5751 5748 5745 5742 5739 5736 5733 5729 5725 5722 5719 5715 5711 5707 5702 5698 5694 5692 5689 5682 5675 5672 5671 5667 5659 5653 5650 5644 5638 5635 5629 5624 5618 5614 5609 5603 5597 5591 5585 5580
5800 5801 5802 5803 5804 5805 5806 5807 5809 5810 5811 5811 5812 5812 5812 5811 5811 5810 5809 5808 5807 5806 5805 5803 5802 5800 5799 5797 5795 5794 5792 5790 5788 5786 5784 5782 5780 5778 5775 5773 5771 5768 5765 5763 5760 5758 5755 5752 5749 5746 5743 5740 5737 5734 5730 5727 5723 5719 5716 5712 5707 5703 5700 5695 5690 5686 5683 5679 5672 5666 5663 5661 5655 5646 5642 5638 5633 5629 5624 5618 5612 5607 5601 5595 5589 5583 5577 5572
5801 5803 5804 5805 5806 5807 5808 5810 5811 5812 5812 5813 5813 5813 5812 5812 5811 5810 5810 5809 5808 5806 5805 5804 5802 5801 5799 5797 5796 5794 5792 5790 5788 5786 5784 5781 5779 5777 5774 5772 5770 5767 5765 5762 5759 5756 5753 5750 5747 5744 5741 5738 5734 5731 5727 5724 5721 5717 5713 5709 5704 5700 5696 5692 5686 5680 5676 5672 5667 5661 5655 5653 5649 5640 5635 5631 5626 5623 5618 5611 5605 5598 5592 5586 5580 5575 5570 5564
5803 5804 5806 5807 5808 5809 5810 5811 5812 5813 5813 5813 5813 5813 5813 5812 5812 5811 5810 5809 5808 5807 5805 5804 5802 5801 5799 5797 5796 5794 5792 5790 5788 5786 5784 5781 5779 5776 5773 5771 5769 5766 5764 5761 5758 5755 5751 5748 5745 5742 5738 5735 5732 5728 5725 5721 5718 5714 5710 5705 5701 5697 5693 5688 5683 5677 5671 5666 5661 5655 5649 5645 5640 5633 5628 5625 5621 5616 5610 5602 5596 5590 5584 5578 5572 5567 5561 5554
5805 5806 5807 5809 5810 5811 5812 5813 5813 5814 5814 5814 5814 5814 5813 5813 5813 5812 5811 5809 5808 5807 5805 5804 5803 5801 5799 5798 5796 5794 5792 5790 5788 5786 5783 5781 5778 5775 5773 5770 5768 5765 5762 5759 5756 5753 5750 5746 5743 5739 5736 5732 5728 5725 5721 5718 5714 5710 5706 5702 5698 5693 5689 5684 5679 5673 5667 5662 5657 5649 5643 5638 5634 5629 5623 5619 5615 5608 5600 5593 5587 5581 5575 5569 5563 5556 5550 5543
5807 5808 5809 5810 5811 5812 5813 5814 5814 5815 5815 5815 5815 5815 5814 5814 5813 5812 5811 5810 5808 5807 5806 5804 5803 5801 5800 5798 5796 5795 5792 5790 5788 5785 5783 5780 5778 5775 5773 5770 5767 5764 5761 5758 5755 5751 5748 5744 5741 5737 5733 5729 5725 5721 5717 5714 5710 5706 5702 5698 5694 5689 5684 5679 5674 5670 5664 5658 5651 5644 5638 5630 5626 5626 5619 5611 5606 5598 5590 5584 5578 5572 5566 5560 5554 5547 5540 5533
5809 5810 5811 5812 5813 5814 5814 5815 5815 5816 5816 5816 5816 5815 5815 5814 5814 5813 5811 5810 5809 5807 5806 5805 5803 5802 5800 5798 5796 5794 5792 5790 5787 5785 5782 5780 5777 5775 5772 5769 5766 5763 5759 5756 5753 5749 5746 5742 5738 5734 5731 5727 5722 5718 5714 5709 5705 5702 5698 5695 5691 5686 5681 5675 5670 5665 5659 5654 5647 5639 5634 5625 5617 5616 5613 5606 5599 5591 5583 5577 5571 5565 5559 5553 5547 5539 5532 5525
5811 5812 5813 5814 5814 5815 5816 5816 5817 5817 5817 5817 5816 5816 5816 5815 5814 5813 5812 5810 5809 5808 5807 5805 5804 5802 5800 5798 5796 5794 5791 5789 5787 5784 5781 5778 5775 5773 5770 5767 5764 5761 5757 5754 5751 5748 5744 5740 5736 5732 5728 5724 5719 5715 5710 5705 5701 5697 5692 5688 5685 5682 5678 5672 5667 5661 5655 5651 5646 5639 5634 5625 5615 5610 5607 5601 5594 5587 5580 5573 5567 5561 5554 5547 5539 5532 5525 5517
5812 5814 5814 5815 5816 5817 5817 5818 5818 5818 5818 5818 5817 5817 5816 5815 5814 5813 5812 5811 5809 5808 5807 5805 5804 5802 5800 5798 5796 5793 5791 5789 5786 5784 5781 5778 5775 5773 5769 5766 5763 5759 5756 5753 5750 5747 5743 5738 5734 5730 5726 5721 5716 5712 5707 5702 5697 5693 5688 5682 5677 5674 5671 5666 5661 5657 5652 5648 5643 5637 5631 5623 5615 5607 5602 5597 5589 5581 5574 5567 5560 5554 5546 5539 5532 5524 5516 5507
5814 5815 5816 5817 5818 5818 5819 5819 5819 5819 5819 5819 5818 5817 5816 5815 5814 5813 5812 5811 5810 5809 5807 5806 5804 5802 5800 5798 5795 5793 5791 5788 5785 5783 5780 5777 5774 5771 5767 5764 5761 5757 5753 5750 5747 5744 5741 5736 5731 5727 5723 5718 5713 5709 5704 5699 5694 5689 5683 5677 5671 5665 5659 5655 5651 5647 5645 5642 5637 5630 5621 5614 5609 5604 5599 5592 5583 5574 5566 5558 5551 5544 5536 5529 5521 5514 5507 5499
5816 5817 5818 5819 5819 5820 5820 5820 5820 5820 5820 5819 5818 5817 5817 5816 5815 5814 5813 5811 5810 5809 5807 5806 5804 5802 5800 5798 5795 5793 5791 5788 5785 5781 5778 5775 5772 5769 5765 5762 5758 5754 5751 5747 5743 5740 5737 5733 5728 5723 5719 5714 5709 5704 5699 5695 5689 5684 5679 5673 5667 5660 5653 5647 5641 5636 5632 5630 5630 5625 5615 5605 5601 5596 5590 5583 5574 5567 5559 5550 5543 5536 5529 5521 5513 5506 5499 5491
5818 5819 5820 5820 5821 5821 5822 5822 5821 5821 5820 5819 5818 5818 5817 5816 5815 5814 5813 5812 5810 5809 5807 5806 5804 5802 5800 5798 5795 5792 5789 5787 5784 5780 5777 5774 5770 5767 5764 5760 5757 5753 5749 5745 5741 5737 5734 5730 5725 5720 5715 5710 5706 5701 5695 5690 5684 5679 5674 5669 5663 5657 5650 5644 5638 5631 5624 5619 5618 5617 5609 5600 5594 5591 5584 5575 5566 5560 5552 5543 5536 5529 5523 5515 5507 5498 5490 5481
5820 5821 5821 5822 5822 5823 5823 5822 5822 5821 5820 5820 5819 5818 5818 5817 5815 5814 5813 5812 5810 5809 5808 5806 5804 5802 5799 5797 5794 5791 5788 5785 5782 5779 5776 5773 5769 5766 5762 5758 5755 5751 5747 5743 5739 5734 5731 5728 5722 5717 5713 5708 5702 5697 5692 5687 5681 5676 5671 5666 5660 5654 5647 5640 5633 5629 5621 5612 5608 5606 5601 5593 5588 5587 5580 5569 5560 5554 5546 5538 5530 5522 5515 5508 5499 5490 5480 5470
5822 5822 5823 5823 5824 5824 5823 5823 5823 5822 5821 5820 5820 5819 5818 5817 5816 5814 5813 5812 5811 5809 5808 5806 5804 5801 5799 5796 5793 5790 5787 5784 5781 5778 5775 5771 5768 5764 5760 5757 5753 5749 5745 5741 5737 5732 5729 5727 5721 5714 5709 5706 5700 5695 5690 5684 5679 5673 5668 5662 5656 5650 5644 5634 5625 5621 5616 5607 5601 5599 5593 5583 5578 5576 5568 5559 5552 5545 5537 5529 5521 5513 5506 5499 5490 5480 5469 5459
5823 5824 5824 5825 5825 5824 5824 5824 5823 5822 5822 5821 5820 5819 5818 5817 5816 5815 5814 5812 5811 5809 5808 5805 5803 5800 5798 5795 5792 5789 5787 5784 5780 5777 5774 5770 5767 5763 5759 5755 5751 5747 5743 5739 5735 5730 5725 5723 5720 5713 5706 5702 5697 5691 5686 5681 5676 5669 5663 5658 5651 5644 5638 5631 5620 5612 5606 5597 5590 5589 5585 5574 5570 5567 5557 5547 5540 5531 5523 5516 5509 5501 5494 5486 5478 5469 5459 5450
5825 5825 5826 5826 5825 5825 5825 5824 5823 5823 5823 5822 5821 5820 5819 5818 5816 5815 5814 5813 5811 5809 5807 5805 5802 5800 5797 5794 5792 5789 5786 5783 5779 5776 5772 5768 5765 5762 5757 5753 5749 5745 5741 5736 5732 5728 5723 5718 5715 5710 5703 5698 5693 5687 5681 5676 5671 5665 5659 5653 5647 5639 5632 5626 5619 5609 5600 5590 5579 5575 5573 5565 5561 5558 5548 5538 5530 5520 5511 5505 5498 5490 5482 5474 5466 5458 5449 5441
5826 5827 5827 5826 5826 5826 5825 5825 5825 5824 5823 5822 5821 5820 5819 5818 5817 5815 5814 5812 5811 5808 5806 5804 5802 5799 5797 5794 5791 5788 5785 5782 5778 5775 5771 5767 5763 5760 5756 5752 5747 5743 5739 5735 5730 5725 5720 5715 5711 5707 5701 5694 5689 5683 5677 5671 5666 5660 5654 5648 5641 5635 5627 5620 5616 5610 5600 5589 5578 5568 5562 5558 5555 5549 5540 5532 5523 5513 5505 5498 5490 5482 5474 5467 5459 5449 5440 5432
5828 5828 5827 5827 5827 5826 5826 5826 5826 5824 5823 5823 5822 5820 5819 5818 5817 5815 5814 5812 5810 5808 5806 5803 5801 5799 5796 5793 5790 5787 5784 5780 5777 5773 5770 5766 5762 5758 5754 5750 5746 5741 5737 5732 5727 5722 5718 5712 5707 5704 5699 5693 5687 5680 5674 5669 5663 5655 5649 5643 5636 5629 5622 5612 5607 5604 5596 5586 5579 5566 5554 5553 5552 5543 5534 5526 5517 5508 5500 5491 5483 5475 5467 5459 5452 5443 5434 5425
5829 5828 5829 5828 5828 5827 5827 5827 5826 5825 5824 5823 5822 5821 5820 5819 5817 5815 5814 5812 5810 5808 5805 5803 5801 5798 5795 5792 5789 5786 5783 5779 5776 5772 5768 5765 5761 5757 5753 5748 5744 5740 5735 5730 5726 5720 5715 5710 5705 5700 5695 5689 5683 5677 5671 5666 5660 5653 5645 5639 5631 5625 5618 5609 5599 5595 5589 5581 5576 5566 5551 5547 5547 5538 5529 5521 5512 5503 5495 5485 5476 5468 5460 5452 5443 5436 5428 5418
5830 5830 5829 5829 5829 5829 5828 5827 5826 5825 5825 5824 5823 5822 5820 5819 5817 5815 5813 5811 5809 5807 5805 5802 5800 5797 5794 5791 5788 5785 5782 5778 5775 5771 5767 5764 5760 5755 5751 5747 5742 5738 5733 5728 5723 5718 5712 5707 5702 5698 5693 5688 5682 5675 5668 5661 5656 5650 5643 5636 5629 5621 5615 5608 5599 5591 5583 5575 5569 5560 5548 5544 5541 5534 5525 5515 5504 5497 5489 5479 5470 5461 5453 5444 5435 5427 5418 5409
5831 5830 5830 5830 5830 5829 5828 5828 5827 5826 5825 5824 5823 5822 5821 5819 5817 5815 5813 5811 5809 5807 5805 5802 5799 5797 5794 5791 5787 5784 5780 5777 5774 5770 5767 5763 5758 5754 5750 5745 5741 5736 5731 5726 5720 5715 5709 5702 5697 5692 5687 5682 5678 5673 5667 5661 5654 5647 5640 5632 5624 5617 5609 5602 5595 5587 5578 5570 5562 5551 5542 5538 5535 5527 5518 5507 5498 5490 5483 5473 5463 5452 5443 5433 5424 5416 5407 5397
5832 5831 5831 5831 5830 5829 5829 5829 5828 5827 5826 5825 5824 5822 5821 5819 5817 5815 5813 5811 5809 5806 5804 5801 5799 5796 5793 5790 5787 5783 5780 5777 5773 5769 5766 5762 5757 5753 5749 5744 5739 5734 5729 5723 5717 5712 5706 5699 5693 5686 5679 5671 5666 5662 5657 5653 5648 5642 5635 5627 5619 5613 5605 5597 5589 5581 5572 5564 5556 5546 5533 5526 5525 5520 5510 5500 5491 5482 5474 5465 5455 5444 5433 5423 5413 5405 5396 5386
5833 5832 5832 5832 5831 5830 5830 5830 5828 5828 5827 5826 5824 5823 5821 5819 5817 5815 5813 5811 5808 5806 5803 5801 5798 5795 5793 5789 5786 5783 5780 5776 5772 5768 5764 5760 5756 5751 5747 5742 5737 5732 5727 5721 5715 5709 5703 5697 5690 5685 5678 5669 5662 5658 5651 5645 5640 5635 5630 5623 5615 5608 5601 5593 5584 5576 5567 5556 5550 5544 5529 5516 5514 5510 5499 5489 5481 5471 5463 5454 5445 5434 5424 5413 5405 5396 5387 5377
5834 5833 5833 5832 5832 5831 5831 5830 5829 5828 5827 5826 5825 5823 5820 5819 5817 5815 5813 5810 5808 5805 5803 5800 5798 5795 5792 5789 5786 5783 5779 5775 5771 5767 5762 5758 5754 5750 5745 5740 5735 5730 5724 5719 5713 5707 5701 5695 5688 5683 5678 5668 5660 5656 5649 5642 5636 5629 5624 5618 5611 5603 5596 5589 5581 5573 5563 5550 5541 5539 5529 5514 5507 5500 5489 5479 5471 5463 5455 5445 5435 5425 5415 5405 5397 5389 5379 5369
5835 5834 5834 5833 5833 5832 5832 5831 5830 5829 5828 5826 5824 5822 5820 5819 5816 5814 5812 5810 5807 5805 5802 5800 5797 5794 5791 5788 5785 5781 5778 5774 5770 5766 5762 5757 5753 5748 5743 5738 5733 5728 5722 5716 5710 5704 5698 5692 5685 5681 5677 5668 5659 5653 5647 5640 5634 5627 5620 5612 5605 5597 5590 5584 5577 5569 5560 5548 5535 5529 5521 5510 5500 5491 5482 5475 5466 5456 5447 5438 5428 5418 5408 5399 5390 5380 5370 5360
5836 5835 5835 5834 5834 5833 5833 5832 5831 5829 5828 5826 5824 5822 5820 5818 5816 5814 5812 5810 5807 5804 5802 5799 5796 5793 5790 5787 5784 5780 5776 5773 5769 5765 5761 5756 5751 5746 5741 5736 5731 5726 5720 5714 5707 5701 5695 5689 5682 5677 5673 5666 5657 5651 5645 5637 5631 5625 5618 5610 5602 5595 5587 5580 5573 5565 5555 5544 5531 5520 5511 5503 5495 5485 5476 5469 5460 5450 5442 5433 5423 5412 5401 5391 5382 5371 5361 5351
5836 5836 5836 5835 5834 5834 5833 5832 5831 5829 5828 5826 5824 5822 5820 5818 5816 5814 5811 5809 5806 5804 5801 5798 5796 5793 5789 5786 5782 5779 5775 5771 5767 5763 5758 5754 5749 5744 5739 5733 5728 5723 5717 5711 5705 5699 5692 5687 5679 5672 5669 5664 5655 5649 5643 5634 5627 5620 5614 5608 5600 5593 5584 5575 5567 5559 5547 5536 5526 5514 5504 5498 5492 5481 5471 5463 5454 5445 5437 5428 5417 5405 5394 5384 5374 5363 5353 5342
5837 5836 5836 5836 5835 5835 5834 5832 5831 5829 5827 5826 5824 5822 5820 5818 5815 5813 5811 5809 5806 5803 5801 5798 5795 5792 5788 5785 5781 5778 5774 5769 5765 5760 5756 5751 5746 5741 5736 5730 5725 5720 5714 5708 5702 5696 5689 5683 5677 5669 5664 5659 5651 5644 5638 5632 5625 5618 5611 5604 5597 5588 5578 5568 5559 5550 5537 5524 5515 5506 5497 5489 5482 5473 5464 5457 5449 5439 5430 5420 5409 5397 5387 5376 5364 5354 5344 5334
5838 5837 5837 5836 5836 5835 5834 5833 5831 5829 5827 5826 5824 5822 5819 5817 5815 5813 5811 5808 5805 5803 5800 5797 5794 5791 5788 5784 5780 5776 5772 5768 5763 5758 5754 5749 5744 5738 5733 5728 5722 5717 5711 5705 5699 5693 5685 5679 5672 5664 5658 5654 5647 5638 5631 5625 5618 5612 5604 5595 5587 5580 5572 5563 5554 5545 5534 5520 5508 5498 5491 5483 5474 5466 5456 5447 5438 5429 5420 5411 5398 5386 5376 5366 5355 5345 5335 5325